ABY3DF OOMS-OMSJ

Flight info

Callsign ABY3DF
Flight time 0h 39m
Altitude 30000
Route ITLAK DCT MIXAM P574 DAPOK T509 PASOV B540 KUPMA/N0369F240 B540 ORKOB/N0356F220 T891 NOLSU
Aircraft A20N/M-SDE2E3FGHIRWXY/LB1

Departure

Time 2026-05-01 11:26
Airport Muscat International Airport (OOMS)

Arrival

Time 2026-05-01 12:05
Airport Sharjah International Airport (OMSJ)
Time Latitude Longitude Altitude Speed Heading
2026-05-01 10:59 23.60223 58.28571 32 ft 0 kts 130°
2026-05-01 11:15 23.60224 58.28570 34 ft 1 kts 130°
2026-05-01 11:15 23.60232 58.28559 55 ft 2 kts 130°
2026-05-01 11:16 23.60241 58.28548 32 ft 2 kts 130°
2026-05-01 11:16 23.60250 58.28536 33 ft 2 kts 130°
2026-05-01 11:16 23.60259 58.28523 34 ft 2 kts 124°
2026-05-01 11:16 23.60267 58.28509 34 ft 2 kts 116°
2026-05-01 11:17 23.60273 58.28495 31 ft 2 kts 106°
2026-05-01 11:17 23.60277 58.28479 31 ft 2 kts 92°
2026-05-01 11:17 23.60277 58.28463 31 ft 2 kts 90°
2026-05-01 11:17 23.60276 58.28446 31 ft 2 kts 87°
2026-05-01 11:18 23.60275 58.28430 30 ft 2 kts 86°
2026-05-01 11:18 23.60274 58.28417 30 ft 0 kts 84°
2026-05-01 11:20 23.60274 58.28419 30 ft 2 kts 84°
2026-05-01 11:21 23.60284 58.28450 32 ft 6 kts 49°
2026-05-01 11:21 23.60327 58.28451 33 ft 8 kts 354°
2026-05-01 11:21 23.60390 58.28444 34 ft 10 kts 354°
2026-05-01 11:21 23.60468 58.28438 34 ft 11 kts 357°
2026-05-01 11:22 23.60539 58.28459 32 ft 12 kts 57°
2026-05-01 11:22 23.60551 58.28544 34 ft 12 kts 85°
2026-05-01 11:22 23.60560 58.28645 34 ft 15 kts 84°
2026-05-01 11:22 23.60569 58.28767 34 ft 17 kts 85°
2026-05-01 11:23 23.60581 58.28906 34 ft 20 kts 84°
2026-05-01 11:23 23.60593 58.29059 34 ft 21 kts 85°
2026-05-01 11:23 23.60605 58.29198 34 ft 18 kts 85°
2026-05-01 11:23 23.60616 58.29335 34 ft 18 kts 84°
2026-05-01 11:24 23.60625 58.29460 33 ft 4 kts 85°
2026-05-01 11:24 23.60628 58.29493 34 ft 6 kts 85°
2026-05-01 11:24 23.60687 58.29609 33 ft 10 kts 345°
2026-05-01 11:25 23.60767 58.29600 33 ft 13 kts 355°
2026-05-01 11:25 23.60890 58.29515 33 ft 12 kts 265°
2026-05-01 11:25 23.60874 58.29299 35 ft 60 kts 265°
2026-05-01 11:26 23.60817 58.28599 34 ft 122 kts 264°
2026-05-01 11:26 23.60555 58.26298 748 ft 160 kts 265°
2026-05-01 11:26 23.60350 58.25118 1393 ft 157 kts 262°
2026-05-01 11:27 23.60106 58.23970 1954 ft 155 kts 259°
2026-05-01 11:27 23.59829 58.22834 2505 ft 153 kts 258°
2026-05-01 11:27 23.59518 58.21742 2964 ft 151 kts 256°
2026-05-01 11:27 23.59173 58.20654 3450 ft 152 kts 253°
2026-05-01 11:28 23.58768 58.19483 3678 ft 192 kts 252°
2026-05-01 11:28 23.58548 58.17958 4315 ft 202 kts 278°
2026-05-01 11:28 23.58924 58.16623 5650 ft 185 kts 302°
2026-05-01 11:29 23.61314 58.14669 6246 ft 246 kts 321°
2026-05-01 11:29 23.62537 58.13288 6618 ft 266 kts 304°
2026-05-01 11:29 23.64617 58.09761 8026 ft 281 kts 300°
2026-05-01 11:30 23.65651 58.07949 8864 ft 285 kts 299°
2026-05-01 11:30 23.66725 58.06097 9731 ft 288 kts 299°
2026-05-01 11:30 23.67810 58.04251 10386 ft 298 kts 300°
2026-05-01 11:30 23.68983 58.02263 10677 ft 322 kts 300°
2026-05-01 11:31 23.70235 58.00149 11011 ft 341 kts 300°
2026-05-01 11:31 23.71544 57.97947 11746 ft 345 kts 301°
2026-05-01 11:31 23.72846 57.95764 12533 ft 348 kts 301°
2026-05-01 11:31 23.74181 57.93519 13315 ft 352 kts 301°
2026-05-01 11:32 23.75508 57.91283 14033 ft 355 kts 300°
2026-05-01 11:32 23.76868 57.88990 14750 ft 358 kts 300°
2026-05-01 11:32 23.78222 57.86705 15484 ft 360 kts 300°
2026-05-01 11:32 23.79569 57.84431 16192 ft 362 kts 300°
2026-05-01 11:33 23.80944 57.82109 16895 ft 365 kts 300°
2026-05-01 11:33 23.82328 57.79770 17574 ft 367 kts 300°
2026-05-01 11:33 23.83714 57.77426 18217 ft 370 kts 300°
2026-05-01 11:33 23.85131 57.75029 18812 ft 372 kts 300°
2026-05-01 11:34 23.86539 57.72647 19397 ft 375 kts 299°
2026-05-01 11:34 23.87952 57.70254 19968 ft 378 kts 299°
2026-05-01 11:34 23.89388 57.67823 20558 ft 380 kts 299°
2026-05-01 11:34 23.90829 57.65380 21135 ft 383 kts 299°
2026-05-01 11:35 23.92262 57.62950 21709 ft 386 kts 299°
2026-05-01 11:35 23.93725 57.60467 22277 ft 389 kts 299°
2026-05-01 11:35 23.95198 57.57968 22838 ft 392 kts 298°
2026-05-01 11:35 23.96683 57.55446 23401 ft 395 kts 298°
2026-05-01 11:36 23.98157 57.52942 23852 ft 398 kts 298°
2026-05-01 11:36 23.99786 57.50450 24314 ft 404 kts 305°
2026-05-01 11:36 24.01694 57.48162 24755 ft 410 kts 311°
2026-05-01 11:36 24.03811 57.46028 25187 ft 414 kts 313°
2026-05-01 11:37 24.05912 57.43916 25613 ft 416 kts 313°
2026-05-01 11:37 24.08058 57.41748 26022 ft 419 kts 313°
2026-05-01 11:37 24.10212 57.39569 26427 ft 421 kts 313°
2026-05-01 11:37 24.12351 57.37404 26823 ft 424 kts 313°
2026-05-01 11:38 24.14527 57.35202 27201 ft 426 kts 313°
2026-05-01 11:38 24.16693 57.33008 27572 ft 428 kts 313°
2026-05-01 11:38 24.18898 57.30775 27941 ft 431 kts 313°
2026-05-01 11:38 24.20361 57.29292 28179 ft 432 kts 312°
2026-05-01 11:39 24.23308 57.26305 28643 ft 435 kts 312°
2026-05-01 11:39 24.24794 57.24799 28865 ft 436 kts 312°
2026-05-01 11:39 24.27033 57.22527 29196 ft 438 kts 312°
2026-05-01 11:39 24.29285 57.20241 29518 ft 441 kts 312°
2026-05-01 11:40 24.31531 57.17961 29752 ft 443 kts 312°
2026-05-01 11:40 24.36034 57.13386 29784 ft 442 kts 312°
2026-05-01 11:41 24.40543 57.08799 29780 ft 442 kts 312°
2026-05-01 11:41 24.45057 57.04203 29785 ft 442 kts 312°
2026-05-01 11:42 24.49565 56.99606 29783 ft 442 kts 312°
2026-05-01 11:42 24.54059 56.95021 29779 ft 441 kts 312°
2026-05-01 11:43 24.58532 56.90451 29776 ft 441 kts 312°
2026-05-01 11:43 24.62993 56.85793 29782 ft 438 kts 308°
2026-05-01 11:44 24.66613 56.80518 29782 ft 430 kts 296°
2026-05-01 11:44 24.68147 56.77707 29778 ft 431 kts 297°
2026-05-01 11:44 24.71244 56.72103 29531 ft 427 kts 297°
2026-05-01 11:45 24.72792 56.69304 28949 ft 425 kts 297°
2026-05-01 11:45 24.74312 56.66552 28404 ft 421 kts 297°
2026-05-01 11:45 24.75808 56.63839 27799 ft 416 kts 297°
2026-05-01 11:45 24.77313 56.61108 27171 ft 413 kts 296°
2026-05-01 11:46 24.78785 56.58431 26561 ft 409 kts 296°
2026-05-01 11:46 24.80260 56.55750 25977 ft 405 kts 296°
2026-05-01 11:46 24.81711 56.53110 25393 ft 402 kts 296°
2026-05-01 11:46 24.83154 56.50480 24445 ft 408 kts 296°
2026-05-01 11:47 24.84644 56.47757 23010 ft 416 kts 296°
2026-05-01 11:47 24.86143 56.45015 21647 ft 420 kts 296°
2026-05-01 11:47 24.87753 56.42367 21024 ft 409 kts 305°
2026-05-01 11:47 24.89705 56.40199 20704 ft 393 kts 314°
2026-05-01 11:48 24.91824 56.38340 19750 ft 392 kts 319°
2026-05-01 11:48 24.94102 56.36602 18295 ft 406 kts 322°
2026-05-01 11:48 24.96475 56.34918 17044 ft 408 kts 323°
2026-05-01 11:48 24.98873 56.33253 16069 ft 401 kts 323°
2026-05-01 11:49 25.01213 56.31626 15376 ft 389 kts 323°
2026-05-01 11:49 25.03447 56.30039 14844 ft 381 kts 321°
2026-05-01 11:49 25.05508 56.28220 14252 ft 373 kts 314°
2026-05-01 11:49 25.07431 56.26322 13620 ft 371 kts 315°
2026-05-01 11:50 25.09338 56.24451 13004 ft 367 kts 315°
2026-05-01 11:50 25.11254 56.22578 12337 ft 363 kts 315°
2026-05-01 11:50 25.13119 56.20755 11691 ft 360 kts 315°
2026-05-01 11:50 25.14992 56.18922 11035 ft 357 kts 315°
2026-05-01 11:51 25.16834 56.17122 10731 ft 345 kts 315°
2026-05-01 11:51 25.18599 56.15399 10580 ft 330 kts 315°
2026-05-01 11:51 25.20249 56.13712 9978 ft 328 kts 309°
2026-05-01 11:51 25.21632 56.11661 9011 ft 335 kts 297°
2026-05-01 11:52 25.22592 56.09327 8467 ft 331 kts 290°
2026-05-01 11:52 25.23440 56.07000 8196 ft 320 kts 291°
2026-05-01 11:52 25.24273 56.04763 8052 ft 307 kts 291°
2026-05-01 11:52 25.25066 56.02651 7946 ft 294 kts 292°
2026-05-01 11:53 25.25657 56.00562 7811 ft 277 kts 274°
2026-05-01 11:53 25.25388 55.98538 7663 ft 260 kts 251°
2026-05-01 11:53 25.24738 55.96762 7516 ft 244 kts 250°
2026-05-01 11:53 25.24123 55.95070 7396 ft 228 kts 251°
2026-05-01 11:54 25.23577 55.93491 7271 ft 211 kts 252°
2026-05-01 11:54 25.23101 55.92069 7208 ft 185 kts 253°
2026-05-01 11:54 25.22690 55.90815 7030 ft 161 kts 254°
2026-05-01 11:54 25.22327 55.89683 6469 ft 165 kts 254°
2026-05-01 11:55 25.21915 55.88383 5384 ft 192 kts 255°
2026-05-01 11:55 25.21475 55.86973 4605 ft 195 kts 255°
2026-05-01 11:55 25.21035 55.85586 4165 ft 181 kts 255°
2026-05-01 11:55 25.20641 55.84363 4026 ft 155 kts 255°
2026-05-01 11:56 25.20302 55.83317 3872 ft 137 kts 256°
2026-05-01 11:56 25.19989 55.82335 3591 ft 135 kts 256°
2026-05-01 11:56 25.19685 55.81376 3302 ft 131 kts 256°
2026-05-01 11:56 25.19385 55.80426 3031 ft 128 kts 256°
2026-05-01 11:57 25.19094 55.79515 2976 ft 133 kts 256°
2026-05-01 11:57 25.18785 55.78528 2832 ft 135 kts 256°
2026-05-01 11:57 25.18702 55.77553 2706 ft 128 kts 298°
2026-05-01 11:57 25.19139 55.76713 2663 ft 130 kts 301°
2026-05-01 11:58 25.19547 55.75801 2554 ft 132 kts 295°
2026-05-01 11:58 25.19923 55.74887 2426 ft 129 kts 296°
2026-05-01 11:58 25.20776 55.73122 2226 ft 126 kts 302°
2026-05-01 11:59 25.21240 55.72295 2213 ft 129 kts 303°
2026-05-01 11:59 25.21718 55.71473 2202 ft 125 kts 303°
2026-05-01 11:59 25.22207 55.70635 2201 ft 133 kts 304°
2026-05-01 12:00 25.23180 55.68970 2212 ft 129 kts 304°
2026-05-01 12:00 25.23652 55.68148 2208 ft 127 kts 302°
2026-05-01 12:00 25.24614 55.66458 2203 ft 127 kts 302°
2026-05-01 12:01 25.25094 55.65625 2210 ft 132 kts 304°
2026-05-01 12:01 25.25586 55.64772 2199 ft 127 kts 305°
2026-05-01 12:01 25.26066 55.63953 2203 ft 130 kts 305°
2026-05-01 12:01 25.26563 55.63112 2138 ft 131 kts 306°
2026-05-01 12:02 25.27088 55.62270 1837 ft 132 kts 306°
2026-05-01 12:02 25.27627 55.61473 1572 ft 128 kts 306°
2026-05-01 12:02 25.28117 55.60668 1392 ft 124 kts 302°
2026-05-01 12:02 25.28562 55.59855 1321 ft 124 kts 299°
2026-05-01 12:03 25.29013 55.59019 1262 ft 132 kts 301°
2026-05-01 12:03 25.29503 55.58130 1135 ft 136 kts 302°
2026-05-01 12:03 25.29993 55.57264 919 ft 128 kts 302°
2026-05-01 12:03 25.30463 55.56470 786 ft 121 kts 300°
2026-05-01 12:04 25.30885 55.55666 681 ft 126 kts 297°
2026-05-01 12:04 25.31370 55.54812 408 ft 132 kts 299°
2026-05-01 12:04 25.31839 55.53972 272 ft 127 kts 300°
2026-05-01 12:04 25.32312 55.53143 133 ft 128 kts 301°
2026-05-01 12:05 25.32740 55.52397 117 ft 98 kts 302°
2026-05-01 12:05 25.33197 55.51471 117 ft 45 kts 271°
2026-05-01 12:05 25.33205 55.51255 115 ft 0 kts 272°
2026-05-01 12:06 25.33205 55.51241 113 ft 4 kts 272°
2026-05-01 12:06 25.33207 55.51202 115 ft 7 kts 272°
2026-05-01 12:06 25.33207 55.51191 115 ft 1 kts 272°
2026-05-01 12:06 25.33207 55.51184 115 ft 0 kts 272°
2026-05-01 12:07 25.33208 55.51180 115 ft 2 kts 272°
2026-05-01 12:07 25.33209 55.51150 115 ft 6 kts 273°
2026-05-01 12:07 25.33219 55.51100 113 ft 8 kts 289°
2026-05-01 12:07 25.33252 55.51038 112 ft 11 kts 303°
2026-05-01 12:08 25.33299 55.50959 113 ft 14 kts 302°
2026-05-01 12:08 25.33265 55.50875 113 ft 14 kts 214°
2026-05-01 12:08 25.33170 55.50846 115 ft 16 kts 149°
2026-05-01 12:08 25.33127 55.50912 114 ft 11 kts 123°
2026-05-01 12:09 25.33078 55.50997 114 ft 15 kts 122°
2026-05-01 12:09 25.33015 55.51107 115 ft 19 kts 123°
2026-05-01 12:09 25.32940 55.51240 114 ft 23 kts 122°
2026-05-01 12:09 25.32848 55.51399 113 ft 26 kts 122°
2026-05-01 12:10 25.32744 55.51579 114 ft 29 kts 122°
2026-05-01 12:10 25.32523 55.51964 113 ft 31 kts 122°
2026-05-01 12:10 25.32430 55.52127 111 ft 11 kts 126°
2026-05-01 12:11 25.32324 55.52104 112 ft 10 kts 214°
2026-05-01 12:11 25.32275 55.52070 113 ft 0 kts 212°